This is the latest recevied weather packets stored in our database for station/object DH3PAE-6. If no packets are shown the sender has not sent any weather packets the latest 10 day(s).
| Time | Temp. | Humidity | Pressure | Rain* | Wind** | Luminosity | Snow |
|---|---|---|---|---|---|---|---|
| 1777504961 | 8.33° C | 46% | 1026 hPa | 0 mm | - | 0 W/m² | - |
| 1777502957 | 8.33° C | 45% | 1025.7 hPa | 0 mm | - | 0 W/m² | - |
| 1777502358 | 8.89° C | 45% | 1025.8 hPa | 0 mm | - | 0 W/m² | - |
| 1777501758 | 8.89° C | 44% | 1025.6 hPa | 0 mm | - | 0 W/m² | - |
| 1777498157 | 9.44° C | 43% | 1025.3 hPa | 0 mm | - | 0 W/m² | - |
| 1777497565 | 10° C | 42% | 1025.3 hPa | 0 mm | - | 0 W/m² | - |
| 1777490357 | 12.22° C | 40% | 1024.1 hPa | 0 mm | - | 0 W/m² | - |
| 1777486937 | 13.33° C | 37% | 1023.2 hPa | 0 mm | - | 9 W/m² | - |
| 1777482737 | 15.56° C | 33% | 1022.1 hPa | 0 mm | - | 197 W/m² | - |
| 1777481537 | 15.56° C | 31% | 1022.1 hPa | 0 mm | - | 255 W/m² | - |
| 1777480940 | 15.56° C | 29% | 1022.2 hPa | 0 mm | - | 285 W/m² | - |
| 1777470740 | 17.22° C | 30% | 1022.5 hPa | 0 mm | - | 717 W/m² | - |
| 1777465940 | 17.22° C | 30% | 1023.1 hPa | 0 mm | - | 705 W/m² | - |
| 1777458137 | 15.56° C | 36% | 1023.5 hPa | 0 mm | - | 654 W/m² | - |
| 1777453336 | 13.33° C | 41% | 1023.6 hPa | 0 mm | - | 705 W/m² | - |
| 1777452736 | 13.89° C | 44% | 1023.6 hPa | 0 mm | - | 684 W/m² | - |
| 1777450339 | 12.22° C | 43% | 1023.5 hPa | 0 mm | - | 595 W/m² | - |
| 1777447336 | 10.56° C | 45% | 1023.1 hPa | 0 mm | - | 316 W/m² | - |
| 1777445536 | 10° C | 44% | 1023 hPa | 0 mm | - | 387 W/m² | - |
| 1777441936 | 7.22° C | 58% | 1022.5 hPa | 0 mm | - | 117 W/m² | - |
| 1777438336 | 1.11° C | 82% | 1021.9 hPa | 0 mm | - | 16 W/m² | - |
| 1777436536 | 0.56° C | 83% | 1021.9 hPa | 0 mm | - | 5 W/m² | - |
| 1777428136 | 2.78° C | 74% | 1021.5 hPa | 0 mm | - | 0 W/m² | - |
| 1777426956 | 3.89° C | 70% | 1021.7 hPa | 0 mm | - | 0 W/m² | - |
| 1777425136 | 4.44° C | 69% | 1021.4 hPa | 0 mm | - | 0 W/m² | - |
* Rain latest hour (hover to see other rain measurements)
** Current wind speed in m/s (hover to see current wind gust speed)